Time,TemperatureF,DewpointF,PressureIn,WindDirection,WindDirectionDegrees,WindSpeedMPH,WindSpeedGustMPH,Humidity,HourlyPrecipIn,Conditions,Clouds,dailyrainin,SolarRadiationWatts/m^2,SoftwareType,DateUTC
2013-08-20 00:01:00,72.3,57.6,30.00,West,271,6.0,12.0,60,0.00,,,0.00,0,WeatherHawk,2013-08-20 04:01:00,
2013-08-20 00:04:00,72.3,57.6,30.00,WNW,303,7.0,10.0,60,0.00,,,0.00,0,WeatherHawk,2013-08-20 04:04:00,
2013-08-20 00:05:00,72.3,57.6,30.00,WNW,303,7.0,10.0,60,0.00,,,0.00,0,WeatherHawk,2013-08-20 04:05:00,
2013-08-20 00:09:00,72.3,57.6,30.00,West,264,9.0,9.0,60,0.00,,,0.00,0,WeatherHawk,2013-08-20 04:09:00,
2013-08-20 00:14:00,72.3,57.6,30.00,West,277,8.0,10.0,60,0.00,,,0.00,0,WeatherHawk,2013-08-20 04:14:00,
2013-08-20 00:19:00,72.3,57.6,30.00,WNW,284,6.0,10.0,60,0.00,,,0.00,0,WeatherHawk,2013-08-20 04:19:00,
2013-08-20 00:24:00,72.3,57.6,30.00,WNW,292,9.0,11.0,60,0.00,,,0.00,0,WeatherHawk,2013-08-20 04:24:00,
2013-08-20 00:29:00,72.3,57.6,30.00,West,260,9.0,11.0,60,0.00,,,0.00,0,WeatherHawk,2013-08-20 04:29:00,
2013-08-20 00:34:00,72.3,57.6,30.00,WNW,282,4.0,11.0,60,0.00,,,0.00,0,WeatherHawk,2013-08-20 04:34:00,
2013-08-20 00:39:00,72.3,57.6,30.00,West,265,8.0,11.0,60,0.00,,,0.00,0,WeatherHawk,2013-08-20 04:39:00,
2013-08-20 00:44:00,72.3,57.6,30.00,West,278,9.0,13.0,60,0.00,,,0.00,0,WeatherHawk,2013-08-20 04:44:00,
2013-08-20 00:49:00,72.3,57.6,30.00,WNW,282,6.0,13.0,60,0.00,,,0.00,0,WeatherHawk,2013-08-20 04:49:00,
2013-08-20 00:54:00,72.3,57.6,30.00,WNW,297,6.0,10.0,60,0.00,,,0.00,0,WeatherHawk,2013-08-20 04:54:00,
2013-08-20 00:59:00,72.3,57.6,30.00,WNW,302,6.0,12.0,60,0.00,,,0.00,0,WeatherHawk,2013-08-20 04:59:00,
2013-08-20 01:04:00,72.3,57.6,30.00,West,274,11.0,13.0,60,0.00,,,0.00,0,WeatherHawk,2013-08-20 05:04:00,
2013-08-20 01:09:00,72.3,57.2,30.00,WNW,285,8.0,13.0,59,0.00,,,0.00,0,WeatherHawk,2013-08-20 05:09:00,
2013-08-20 01:14:00,72.5,57.3,30.00,WNW,301,9.0,13.0,59,0.00,,,0.00,1,WeatherHawk,2013-08-20 05:14:00,
2013-08-20 01:19:00,72.5,57.3,29.99,WNW,297,6.0,11.0,59,0.00,,,0.00,0,WeatherHawk,2013-08-20 05:19:00,
2013-08-20 01:24:00,72.7,57.0,29.99,West,273,9.0,11.0,58,0.00,,,0.00,0,WeatherHawk,2013-08-20 05:24:00,
2013-08-20 01:29:00,72.9,57.2,29.99,NW,309,8.0,13.0,58,0.00,,,0.00,0,WeatherHawk,2013-08-20 05:29:00,
2013-08-20 01:34:00,72.9,57.2,29.99,WNW,286,4.0,13.0,58,0.00,,,0.00,0,WeatherHawk,2013-08-20 05:34:00,
2013-08-20 01:39:00,72.7,57.0,29.99,NW,311,6.0,12.0,58,0.00,,,0.00,0,WeatherHawk,2013-08-20 05:39:00,
2013-08-20 01:44:00,72.9,57.2,29.99,WNW,294,9.0,11.0,58,0.00,,,0.00,0,WeatherHawk,2013-08-20 05:44:00,
2013-08-20 01:49:00,72.9,57.2,29.99,NW,318,8.0,11.0,58,0.00,,,0.00,0,WeatherHawk,2013-08-20 05:49:00,
2013-08-20 01:54:00,72.9,57.2,29.99,NW,316,10.0,12.0,58,0.00,,,0.00,0,WeatherHawk,2013-08-20 05:54:00,
2013-08-20 01:59:00,72.9,57.2,29.99,NW,318,4.0,12.0,58,0.00,,,0.00,0,WeatherHawk,2013-08-20 05:59:00,
2013-08-20 02:04:00,72.5,57.3,29.99,WNW,292,9.0,10.0,59,0.00,,,0.00,0,WeatherHawk,2013-08-20 06:04:00,
2013-08-20 02:09:00,72.3,57.2,30.00,WNW,296,6.0,11.0,59,0.00,,,0.00,0,WeatherHawk,2013-08-20 06:09:00,
2013-08-20 02:14:00,72.1,57.5,30.00,WNW,288,5.0,11.0,60,0.00,,,0.00,0,WeatherHawk,2013-08-20 06:14:00,
2013-08-20 02:19:00,72.0,57.3,30.00,WNW,287,6.0,11.0,60,0.00,,,0.00,0,WeatherHawk,2013-08-20 06:19:00,
2013-08-20 02:24:00,71.8,57.6,30.00,NW,305,6.0,11.0,61,0.00,,,0.00,0,WeatherHawk,2013-08-20 06:24:00,
2013-08-20 02:29:00,71.4,57.7,30.00,WNW,298,4.0,10.0,62,0.00,,,0.00,0,WeatherHawk,2013-08-20 06:29:00,
2013-08-20 02:34:00,71.4,57.7,30.00,WNW,303,7.0,10.0,62,0.00,,,0.00,0,WeatherHawk,2013-08-20 06:34:00,
2013-08-20 02:39:00,71.4,57.7,30.00,WNW,302,5.0,11.0,62,0.00,,,0.00,0,WeatherHawk,2013-08-20 06:39:00,
2013-08-20 02:44:00,71.4,57.7,30.00,NW,308,9.0,13.0,62,0.00,,,0.00,0,WeatherHawk,2013-08-20 06:44:00,
2013-08-20 02:49:00,71.4,57.7,30.00,WNW,288,7.0,13.0,62,0.00,,,0.00,0,WeatherHawk,2013-08-20 06:49:00,
2013-08-20 02:54:00,71.2,57.5,30.00,NW,319,8.0,12.0,62,0.00,,,0.00,0,WeatherHawk,2013-08-20 06:54:00,
2013-08-20 02:59:00,71.2,57.5,30.00,WNW,284,8.0,12.0,62,0.00,,,0.00,0,WeatherHawk,2013-08-20 06:59:00,
2013-08-20 03:04:00,71.2,57.5,30.00,WNW,300,9.0,13.0,62,0.00,,,0.00,0,WeatherHawk,2013-08-20 07:04:00,
2013-08-20 03:09:00,71.1,57.4,30.00,WNW,288,7.0,13.0,62,0.00,,,0.00,0,WeatherHawk,2013-08-20 07:09:00,
2013-08-20 03:14:00,70.9,57.6,30.00,WNW,301,10.0,11.0,63,0.00,,,0.00,0,WeatherHawk,2013-08-20 07:14:00,
2013-08-20 03:19:00,70.7,57.5,30.00,WNW,296,6.0,11.0,63,0.00,,,0.00,0,WeatherHawk,2013-08-20 07:19:00,
2013-08-20 03:24:00,70.5,57.3,30.00,NW,313,8.0,12.0,63,0.00,,,0.00,0,WeatherHawk,2013-08-20 07:24:00,
2013-08-20 03:29:00,70.3,57.6,30.00,NW,307,6.0,13.0,64,0.00,,,0.00,0,WeatherHawk,2013-08-20 07:29:00,
2013-08-20 03:34:00,70.2,57.4,30.00,NW,316,9.0,13.0,64,0.00,,,0.00,0,WeatherHawk,2013-08-20 07:34:00,
2013-08-20 03:39:00,70.2,57.4,30.00,NW,305,8.0,12.0,64,0.00,,,0.00,1,WeatherHawk,2013-08-20 07:39:00,
2013-08-20 03:44:00,70.2,57.4,30.00,WNW,303,9.0,12.0,64,0.00,,,0.00,0,WeatherHawk,2013-08-20 07:44:00,
2013-08-20 03:49:00,69.8,57.5,30.00,WNW,293,9.0,11.0,65,0.00,,,0.00,0,WeatherHawk,2013-08-20 07:49:00,
2013-08-20 03:54:00,69.6,57.3,30.00,NW,313,7.0,11.0,65,0.00,,,0.00,0,WeatherHawk,2013-08-20 07:54:00,
2013-08-20 03:59:00,69.6,57.3,30.00,NW,312,5.0,11.0,65,0.00,,,0.00,0,WeatherHawk,2013-08-20 07:59:00,
2013-08-20 04:04:00,69.4,57.6,30.00,WNW,302,7.0,11.0,66,0.00,,,0.00,0,WeatherHawk,2013-08-20 08:04:00,
2013-08-20 04:09:00,69.3,57.4,30.01,NW,309,6.0,10.0,66,0.00,,,0.00,0,WeatherHawk,2013-08-20 08:09:00,
2013-08-20 04:14:00,69.3,57.4,30.01,WNW,292,9.0,12.0,66,0.00,,,0.00,0,WeatherHawk,2013-08-20 08:14:00,
2013-08-20 04:19:00,69.1,57.2,30.01,NW,304,10.0,12.0,66,0.00,,,0.00,0,WeatherHawk,2013-08-20 08:19:00,
2013-08-20 04:24:00,68.9,57.5,30.01,NW,308,4.0,11.0,67,0.00,,,0.00,0,WeatherHawk,2013-08-20 08:24:00,
2013-08-20 04:29:00,68.7,57.3,30.01,NW,320,8.0,11.0,67,0.00,,,0.00,0,WeatherHawk,2013-08-20 08:29:00,
2013-08-20 04:34:00,68.5,57.5,30.01,NW,304,6.0,10.0,68,0.00,,,0.00,0,WeatherHawk,2013-08-20 08:34:00,
2013-08-20 04:39:00,68.5,57.5,30.01,NW,311,9.0,10.0,68,0.00,,,0.00,0,WeatherHawk,2013-08-20 08:39:00,
2013-08-20 04:44:00,68.5,57.5,30.02,NW,307,9.0,11.0,68,0.00,,,0.00,0,WeatherHawk,2013-08-20 08:44:00,
2013-08-20 04:49:00,68.5,57.5,30.02,WNW,301,7.0,12.0,68,0.00,,,0.00,0,WeatherHawk,2013-08-20 08:49:00,
2013-08-20 04:54:00,68.4,57.4,30.02,NW,308,6.0,12.0,68,0.00,,,0.00,0,WeatherHawk,2013-08-20 08:54:00,
2013-08-20 04:59:00,68.2,57.6,30.02,NW,311,5.0,9.0,69,0.00,,,0.00,0,WeatherHawk,2013-08-20 08:59:00,
2013-08-20 05:04:00,68.0,57.4,30.02,NW,321,9.0,9.0,69,0.00,,,0.00,0,WeatherHawk,2013-08-20 09:04:00,
2013-08-20 05:09:00,68.0,57.4,30.02,NW,307,6.0,10.0,69,0.00,,,0.00,0,WeatherHawk,2013-08-20 09:09:00,
2013-08-20 05:14:00,67.8,57.3,30.02,NW,324,7.0,10.0,69,0.00,,,0.00,0,WeatherHawk,2013-08-20 09:14:00,
2013-08-20 05:19:00,67.8,57.7,30.02,NW,305,7.0,9.0,70,0.00,,,0.00,0,WeatherHawk,2013-08-20 09:19:00,
2013-08-20 05:24:00,67.6,57.5,30.02,NW,321,7.0,10.0,70,0.00,,,0.00,0,WeatherHawk,2013-08-20 09:24:00,
2013-08-20 05:29:00,67.5,57.3,30.02,WNW,296,9.0,10.0,70,0.00,,,0.00,0,WeatherHawk,2013-08-20 09:29:00,
2013-08-20 05:34:00,67.3,57.5,30.02,NW,305,6.0,9.0,71,0.00,,,0.00,0,WeatherHawk,2013-08-20 09:34:00,
2013-08-20 05:39:00,67.3,57.5,30.03,NW,322,8.0,11.0,71,0.00,,,0.00,0,WeatherHawk,2013-08-20 09:39:00,
2013-08-20 05:44:00,67.3,57.5,30.03,WNW,297,8.0,11.0,71,0.00,,,0.00,0,WeatherHawk,2013-08-20 09:44:00,
2013-08-20 05:49:00,67.3,57.5,30.03,WNW,290,9.0,11.0,71,0.00,,,0.00,0,WeatherHawk,2013-08-20 09:49:00,
2013-08-20 05:54:00,67.1,57.4,30.03,NW,323,9.0,11.0,71,0.00,,,0.00,2,WeatherHawk,2013-08-20 09:54:00,
2013-08-20 05:59:00,67.1,57.4,30.04,WNW,303,6.0,11.0,71,0.00,,,0.00,4,WeatherHawk,2013-08-20 09:59:00,
2013-08-20 06:04:00,67.1,57.4,30.04,NW,310,7.0,11.0,71,0.00,,,0.00,9,WeatherHawk,2013-08-20 10:04:00,
2013-08-20 06:09:00,66.9,57.6,30.04,NW,304,6.0,10.0,72,0.00,,,0.00,14,WeatherHawk,2013-08-20 10:09:00,
2013-08-20 06:14:00,67.1,57.8,30.04,NW,312,5.0,10.0,72,0.00,,,0.00,21,WeatherHawk,2013-08-20 10:14:00,
2013-08-20 06:19:00,67.1,57.4,30.04,WNW,303,5.0,9.0,71,0.00,,,0.00,26,WeatherHawk,2013-08-20 10:19:00,
2013-08-20 06:24:00,67.1,57.4,30.04,NW,325,4.0,9.0,71,0.00,,,0.00,35,WeatherHawk,2013-08-20 10:24:00,
2013-08-20 06:29:00,67.1,57.8,30.04,WNW,303,6.0,8.0,72,0.00,,,0.00,43,WeatherHawk,2013-08-20 10:29:00,
2013-08-20 06:34:00,67.1,57.8,30.04,NW,304,6.0,8.0,72,0.00,,,0.00,52,WeatherHawk,2013-08-20 10:34:00,
2013-08-20 06:39:00,67.1,57.8,30.04,NW,317,5.0,9.0,72,0.00,,,0.00,63,WeatherHawk,2013-08-20 10:39:00,
2013-08-20 06:44:00,67.3,57.5,30.04,WNW,292,7.0,9.0,71,0.00,,,0.00,73,WeatherHawk,2013-08-20 10:44:00,
2013-08-20 06:49:00,67.5,57.7,30.04,WNW,292,7.0,9.0,71,0.00,,,0.00,83,WeatherHawk,2013-08-20 10:49:00,
2013-08-20 06:54:00,67.5,57.7,30.04,NW,316,7.0,9.0,71,0.00,,,0.00,93,WeatherHawk,2013-08-20 10:54:00,
2013-08-20 06:59:00,67.6,57.9,30.04,NW,310,5.0,9.0,71,0.00,,,0.00,102,WeatherHawk,2013-08-20 10:59:00,
2013-08-20 07:04:00,67.8,58.1,30.05,NW,306,6.0,9.0,71,0.00,,,0.00,114,WeatherHawk,2013-08-20 11:04:00,
2013-08-20 07:09:00,68.0,58.2,30.05,NW,311,5.0,7.0,71,0.00,,,0.00,129,WeatherHawk,2013-08-20 11:09:00,
2013-08-20 07:14:00,68.0,57.8,30.05,NW,308,6.0,8.0,70,0.00,,,0.00,142,WeatherHawk,2013-08-20 11:14:00,
2013-08-20 07:19:00,68.4,58.2,30.05,NNW,328,7.0,9.0,70,0.00,,,0.00,159,WeatherHawk,2013-08-20 11:19:00,
2013-08-20 07:24:00,68.5,58.4,30.05,NW,310,6.0,9.0,70,0.00,,,0.00,172,WeatherHawk,2013-08-20 11:24:00,
2013-08-20 07:29:00,68.9,58.3,30.06,NW,326,5.0,9.0,69,0.00,,,0.00,186,WeatherHawk,2013-08-20 11:29:00,
2013-08-20 07:34:00,69.1,58.1,30.06,NW,325,5.0,9.0,68,0.00,,,0.00,201,WeatherHawk,2013-08-20 11:34:00,
2013-08-20 07:39:00,69.4,58.4,30.06,WNW,300,6.0,9.0,68,0.00,,,0.00,213,WeatherHawk,2013-08-20 11:39:00,
2013-08-20 07:44:00,69.8,58.8,30.06,NW,324,5.0,9.0,68,0.00,,,0.00,228,WeatherHawk,2013-08-20 11:44:00,
2013-08-20 07:49:00,70.2,58.7,30.06,NNW,332,4.0,9.0,67,0.00,,,0.00,244,WeatherHawk,2013-08-20 11:49:00,
2013-08-20 07:54:00,70.3,58.9,30.06,NW,315,6.0,9.0,67,0.00,,,0.00,260,WeatherHawk,2013-08-20 11:54:00,
2013-08-20 07:59:00,70.7,58.3,30.06,NW,316,9.0,9.0,65,0.00,,,0.00,274,WeatherHawk,2013-08-20 11:59:00,
2013-08-20 08:04:00,71.1,59.1,30.06,NW,310,8.0,10.0,66,0.00,,,0.00,290,WeatherHawk,2013-08-20 12:04:00,
2013-08-20 08:09:00,71.2,59.3,30.06,WNW,296,3.0,10.0,66,0.00,,,0.00,306,WeatherHawk,2013-08-20 12:09:00,
2013-08-20 08:14:00,71.4,59.0,30.06,NW,316,7.0,10.0,65,0.00,,,0.00,316,WeatherHawk,2013-08-20 12:14:00,
2013-08-20 08:19:00,71.8,58.9,30.06,NW,312,5.0,10.0,64,0.00,,,0.00,334,WeatherHawk,2013-08-20 12:19:00,
2013-08-20 08:24:00,72.1,58.8,30.07,NW,324,5.0,10.0,63,0.00,,,0.00,354,WeatherHawk,2013-08-20 12:24:00,
2013-08-20 08:29:00,72.7,59.3,30.06,NW,315,3.0,9.0,63,0.00,,,0.00,369,WeatherHawk,2013-08-20 12:29:00,
2013-08-20 08:34:00,73.0,58.8,30.06,NW,314,2.0,8.0,61,0.00,,,0.00,385,WeatherHawk,2013-08-20 12:34:00,
2013-08-20 08:39:00,73.6,59.3,30.07,NNW,331,2.0,8.0,61,0.00,,,0.00,404,WeatherHawk,2013-08-20 12:39:00,
2013-08-20 08:44:00,74.1,58.9,30.07,WNW,293,6.0,7.0,59,0.00,,,0.00,419,WeatherHawk,2013-08-20 12:44:00,
2013-08-20 08:49:00,74.3,58.5,30.07,SSE,161,1.0,6.0,58,0.00,,,0.00,427,WeatherHawk,2013-08-20 12:49:00,
2013-08-20 08:54:00,73.0,57.4,30.07,South,182,3.0,6.0,58,0.00,,,0.00,440,WeatherHawk,2013-08-20 12:54:00,
2013-08-20 08:59:00,73.0,57.8,30.07,SSE,150,2.0,5.0,59,0.00,,,0.00,456,WeatherHawk,2013-08-20 12:59:00,
2013-08-20 09:04:00,72.7,57.5,30.07,South,176,4.0,5.0,59,0.00,,,0.00,471,WeatherHawk,2013-08-20 13:04:00,
2013-08-20 09:09:00,71.8,58.0,30.08,SSE,167,2.0,4.0,62,0.00,,,0.00,489,WeatherHawk,2013-08-20 13:09:00,
2013-08-20 09:14:00,71.1,57.4,30.08,South,172,4.0,4.0,62,0.00,,,0.00,502,WeatherHawk,2013-08-20 13:14:00,
2013-08-20 09:19:00,69.1,57.7,30.08,South,181,2.0,5.0,67,0.00,,,0.00,520,WeatherHawk,2013-08-20 13:19:00,
2013-08-20 09:24:00,69.1,57.7,30.08,SSE,162,3.0,5.0,67,0.00,,,0.00,537,WeatherHawk,2013-08-20 13:24:00,
2013-08-20 09:29:00,72.0,58.7,30.08,SW,217,1.0,5.0,63,0.00,,,0.00,550,WeatherHawk,2013-08-20 13:29:00,
2013-08-20 09:34:00,69.6,57.7,30.08,SSE,147,4.0,5.0,66,0.00,,,0.00,564,WeatherHawk,2013-08-20 13:34:00,
2013-08-20 09:39:00,68.5,57.5,30.08,SE,145,3.0,5.0,68,0.00,,,0.00,576,WeatherHawk,2013-08-20 13:39:00,
2013-08-20 09:44:00,69.6,58.6,30.08,South,175,3.0,5.0,68,0.00,,,0.00,592,WeatherHawk,2013-08-20 13:44:00,
2013-08-20 09:49:00,69.8,58.3,30.08,SSW,195,4.0,4.0,67,0.00,,,0.00,604,WeatherHawk,2013-08-20 13:49:00,
2013-08-20 09:54:00,70.5,58.6,30.08,SE,143,4.0,5.0,66,0.00,,,0.00,611,WeatherHawk,2013-08-20 13:54:00,
2013-08-20 09:59:00,71.6,58.8,30.08,SE,126,4.0,5.0,64,0.00,,,0.00,622,WeatherHawk,2013-08-20 13:59:00,
2013-08-20 10:04:00,73.9,59.6,30.08,SE,126,5.0,6.0,61,0.00,,,0.00,632,WeatherHawk,2013-08-20 14:04:00,
2013-08-20 10:09:00,75.6,59.7,30.08,SW,219,1.0,6.0,58,0.00,,,0.00,642,WeatherHawk,2013-08-20 14:09:00,
2013-08-20 10:14:00,76.1,59.7,30.09,East,80,1.0,6.0,57,0.00,,,0.00,650,WeatherHawk,2013-08-20 14:14:00,
2013-08-20 10:19:00,77.7,59.2,30.09,NW,308,4.0,8.0,53,0.00,,,0.00,660,WeatherHawk,2013-08-20 14:19:00,
2013-08-20 10:24:00,78.1,60.1,30.09,WNW,292,3.0,9.0,54,0.00,,,0.00,663,WeatherHawk,2013-08-20 14:24:00,
2013-08-20 10:29:00,75.0,59.2,30.09,SSE,158,3.0,9.0,58,0.00,,,0.00,676,WeatherHawk,2013-08-20 14:29:00,
2013-08-20 10:34:00,73.4,58.7,30.09,SE,138,3.0,6.0,60,0.00,,,0.00,675,WeatherHawk,2013-08-20 14:34:00,
2013-08-20 10:39:00,73.0,58.8,30.09,SSE,159,4.0,5.0,61,0.00,,,0.00,690,WeatherHawk,2013-08-20 14:39:00,
2013-08-20 10:44:00,72.7,58.4,30.09,South,186,3.0,6.0,61,0.00,,,0.00,697,WeatherHawk,2013-08-20 14:44:00,
2013-08-20 10:49:00,74.7,59.4,30.09,SSW,211,3.0,6.0,59,0.00,,,0.00,711,WeatherHawk,2013-08-20 14:49:00,
2013-08-20 10:54:00,75.7,58.9,30.09,SSW,196,3.0,5.0,56,0.00,,,0.00,715,WeatherHawk,2013-08-20 14:54:00,
2013-08-20 10:59:00,75.7,58.9,30.09,ESE,114,3.0,4.0,56,0.00,,,0.00,722,WeatherHawk,2013-08-20 14:59:00,
2013-08-20 11:04:00,73.8,58.5,30.09,South,188,6.0,6.0,59,0.00,,,0.00,734,WeatherHawk,2013-08-20 15:04:00,
2013-08-20 11:09:00,73.6,58.8,30.09,South,181,5.0,7.0,60,0.00,,,0.00,749,WeatherHawk,2013-08-20 15:09:00,
2013-08-20 11:14:00,73.0,58.3,30.09,SSE,164,6.0,7.0,60,0.00,,,0.00,750,WeatherHawk,2013-08-20 15:14:00,
2013-08-20 11:19:00,73.8,59.9,30.08,SE,146,3.0,6.0,62,0.00,,,0.00,764,WeatherHawk,2013-08-20 15:19:00,
2013-08-20 11:24:00,73.8,59.9,30.09,South,185,1.0,6.0,62,0.00,,,0.00,766,WeatherHawk,2013-08-20 15:24:00,
2013-08-20 11:29:00,73.0,59.2,30.08,SSE,156,2.0,6.0,62,0.00,,,0.00,772,WeatherHawk,2013-08-20 15:29:00,
2013-08-20 11:34:00,74.7,59.4,30.08,SSE,157,4.0,4.0,59,0.00,,,0.00,780,WeatherHawk,2013-08-20 15:34:00,
2013-08-20 11:39:00,74.7,59.4,30.09,South,186,4.0,5.0,59,0.00,,,0.00,782,WeatherHawk,2013-08-20 15:39:00,
2013-08-20 11:44:00,72.0,59.1,30.09,SSE,152,3.0,5.0,64,0.00,,,0.00,786,WeatherHawk,2013-08-20 15:44:00,
2013-08-20 11:49:00,72.3,59.9,30.09,SE,134,1.0,4.0,65,0.00,,,0.00,788,WeatherHawk,2013-08-20 15:49:00,
2013-08-20 11:54:00,72.0,59.1,30.08,SSW,194,4.0,5.0,64,0.00,,,0.00,785,WeatherHawk,2013-08-20 15:54:00,
2013-08-20 11:59:00,72.9,59.5,30.08,SSE,147,5.0,5.0,63,0.00,,,0.00,792,WeatherHawk,2013-08-20 15:59:00,
2013-08-20 12:04:00,71.1,59.1,30.08,SSE,165,5.0,6.0,66,0.00,,,0.00,804,WeatherHawk,2013-08-20 16:04:00,
2013-08-20 12:09:00,70.9,58.9,30.08,South,183,5.0,6.0,66,0.00,,,0.00,803,WeatherHawk,2013-08-20 16:09:00,
2013-08-20 12:14:00,72.3,59.0,30.08,South,186,5.0,6.0,63,0.00,,,0.00,806,WeatherHawk,2013-08-20 16:14:00,
2013-08-20 12:19:00,73.9,59.6,30.08,SSW,202,5.0,6.0,61,0.00,,,0.00,803,WeatherHawk,2013-08-20 16:19:00,
2013-08-20 12:24:00,73.8,59.5,30.08,South,187,4.0,6.0,61,0.00,,,0.00,813,WeatherHawk,2013-08-20 16:24:00,
2013-08-20 12:30:00,73.0,59.7,30.08,SE,141,3.0,-999.0,63,0.00,,,0.00,810,WeatherHawk,2013-08-20 16:30:00,
2013-08-20 12:35:00,72.0,59.5,30.08,SE,139,4.0,4.0,65,0.00,,,0.00,811,WeatherHawk,2013-08-20 16:35:00,
2013-08-20 12:40:00,73.0,59.2,30.08,ESE,123,4.0,5.0,62,0.00,,,0.00,811,WeatherHawk,2013-08-20 16:40:00,
2013-08-20 12:45:00,73.4,59.1,30.08,SE,144,3.0,5.0,61,0.00,,,0.00,817,WeatherHawk,2013-08-20 16:45:00,
2013-08-20 12:50:00,73.6,59.3,30.08,SSE,154,4.0,5.0,61,0.00,,,0.00,807,WeatherHawk,2013-08-20 16:50:00,
2013-08-20 12:55:00,73.4,60.0,30.08,SSE,163,4.0,5.0,63,0.00,,,0.00,810,WeatherHawk,2013-08-20 16:55:00,
2013-08-20 13:00:00,73.2,59.9,30.08,South,190,2.0,5.0,63,0.00,,,0.00,827,WeatherHawk,2013-08-20 17:00:00,
2013-08-20 13:05:00,72.5,59.6,30.08,SE,129,6.0,6.0,64,0.00,,,0.00,811,WeatherHawk,2013-08-20 17:05:00,
2013-08-20 13:10:00,73.0,59.2,30.08,SE,124,4.0,6.0,62,0.00,,,0.00,803,WeatherHawk,2013-08-20 17:10:00,
2013-08-20 13:15:00,72.7,59.3,30.08,SE,132,4.0,6.0,63,0.00,,,0.00,818,WeatherHawk,2013-08-20 17:15:00,
2013-08-20 13:20:00,72.7,58.9,30.08,SSE,150,5.0,6.0,62,0.00,,,0.00,808,WeatherHawk,2013-08-20 17:20:00,
2013-08-20 13:25:00,72.3,59.9,30.08,SSE,165,5.0,6.0,65,0.00,,,0.00,797,WeatherHawk,2013-08-20 17:25:00,
2013-08-20 13:30:00,71.6,60.0,30.08,ESE,121,6.0,7.0,67,0.00,,,0.00,804,WeatherHawk,2013-08-20 17:30:00,
2013-08-20 13:35:00,73.0,58.8,30.08,ESE,112,8.0,8.0,61,0.00,,,0.00,791,WeatherHawk,2013-08-20 17:35:00,
2013-08-20 13:40:00,74.1,59.3,30.08,SE,129,5.0,8.0,60,0.00,,,0.00,780,WeatherHawk,2013-08-20 17:40:00,
2013-08-20 13:45:00,73.9,59.2,30.08,SE,133,4.0,8.0,60,0.00,,,0.00,774,WeatherHawk,2013-08-20 17:45:00,
2013-08-20 13:50:00,73.6,58.8,30.07,SE,135,9.0,9.0,60,0.00,,,0.00,766,WeatherHawk,2013-08-20 17:50:00,
2013-08-20 13:55:00,71.6,60.0,30.07,ESE,110,6.0,9.0,67,0.00,,,0.00,770,WeatherHawk,2013-08-20 17:55:00,
2013-08-20 14:00:00,72.1,60.6,30.07,SE,140,5.0,9.0,67,0.00,,,0.00,767,WeatherHawk,2013-08-20 18:00:00,
2013-08-20 14:05:00,72.9,60.0,30.07,ESE,115,7.0,8.0,64,0.00,,,0.00,764,WeatherHawk,2013-08-20 18:05:00,
2013-08-20 14:10:00,73.4,60.5,30.07,SE,126,5.0,9.0,64,0.00,,,0.00,748,WeatherHawk,2013-08-20 18:10:00,
2013-08-20 14:15:00,73.0,60.1,30.07,ESE,116,5.0,9.0,64,0.00,,,0.00,745,WeatherHawk,2013-08-20 18:15:00,
2013-08-20 14:20:00,73.0,60.1,30.07,ESE,120,6.0,7.0,64,0.00,,,0.00,740,WeatherHawk,2013-08-20 18:20:00,
2013-08-20 14:25:00,73.0,60.6,30.07,SE,128,6.0,7.0,65,0.00,,,0.00,732,WeatherHawk,2013-08-20 18:25:00,
2013-08-20 14:30:00,72.5,60.9,30.07,SE,128,6.0,7.0,67,0.00,,,0.00,728,WeatherHawk,2013-08-20 18:30:00,
2013-08-20 14:35:00,72.9,60.8,30.07,SSE,158,5.0,7.0,66,0.00,,,0.00,722,WeatherHawk,2013-08-20 18:35:00,
2013-08-20 14:40:00,73.2,61.2,30.07,SSE,152,4.0,6.0,66,0.00,,,0.00,711,WeatherHawk,2013-08-20 18:40:00,
2013-08-20 14:45:00,72.5,60.5,30.07,SE,136,4.0,5.0,66,0.00,,,0.00,701,WeatherHawk,2013-08-20 18:45:00,
2013-08-20 14:50:00,72.3,60.7,30.06,SSE,151,5.0,6.0,67,0.00,,,0.00,682,WeatherHawk,2013-08-20 18:50:00,
2013-08-20 14:55:00,72.1,60.6,30.06,ESE,123,6.0,7.0,67,0.00,,,0.00,684,WeatherHawk,2013-08-20 18:55:00,
2013-08-20 15:00:00,72.1,61.4,30.06,SE,138,7.0,8.0,69,0.00,,,0.00,672,WeatherHawk,2013-08-20 19:00:00,
2013-08-20 15:05:00,71.6,61.7,30.07,ESE,118,5.0,9.0,71,0.00,,,0.00,660,WeatherHawk,2013-08-20 19:05:00,
2013-08-20 15:10:00,72.0,61.2,30.06,SE,139,8.0,9.0,69,0.00,,,0.00,650,WeatherHawk,2013-08-20 19:10:00,
2013-08-20 15:15:00,72.1,62.2,30.06,SE,139,9.0,10.0,71,0.00,,,0.00,638,WeatherHawk,2013-08-20 19:15:00,
2013-08-20 15:20:00,72.1,61.8,30.06,SE,138,10.0,11.0,70,0.00,,,0.00,623,WeatherHawk,2013-08-20 19:20:00,
2013-08-20 15:24:00,72.1,62.6,30.06,SE,144,8.0,11.0,72,0.00,,,0.00,622,WeatherHawk,2013-08-20 19:24:00,
2013-08-20 15:29:00,71.6,62.9,30.06,SE,125,5.0,10.0,74,0.00,,,0.00,611,WeatherHawk,2013-08-20 19:29:00,
2013-08-20 15:34:00,71.2,62.5,30.06,SE,130,5.0,9.0,74,0.00,,,0.00,597,WeatherHawk,2013-08-20 19:34:00,
2013-08-20 15:39:00,71.4,62.7,30.06,SE,130,5.0,7.0,74,0.00,,,0.00,584,WeatherHawk,2013-08-20 19:39:00,
2013-08-20 15:44:00,71.4,62.3,30.06,ESE,107,4.0,7.0,73,0.00,,,0.00,573,WeatherHawk,2013-08-20 19:44:00,
2013-08-20 15:49:00,71.6,62.1,30.06,South,182,2.0,6.0,72,0.00,,,0.00,558,WeatherHawk,2013-08-20 19:49:00,
2013-08-20 15:54:00,72.1,61.8,30.06,SE,138,6.0,7.0,70,0.00,,,0.00,550,WeatherHawk,2013-08-20 19:54:00,
2013-08-20 15:59:00,72.0,62.0,30.06,SE,132,3.0,7.0,71,0.00,,,0.00,540,WeatherHawk,2013-08-20 19:59:00,
2013-08-20 16:04:00,71.6,61.7,30.06,SE,132,4.0,6.0,71,0.00,,,0.00,527,WeatherHawk,2013-08-20 20:04:00,
2013-08-20 16:09:00,72.0,61.6,30.06,SE,127,5.0,5.0,70,0.00,,,0.00,518,WeatherHawk,2013-08-20 20:09:00,
2013-08-20 16:14:00,71.6,61.7,30.06,ESE,119,5.0,6.0,71,0.00,,,0.00,506,WeatherHawk,2013-08-20 20:14:00,
2013-08-20 16:19:00,71.8,61.9,30.06,ESE,123,5.0,6.0,71,0.00,,,0.00,490,WeatherHawk,2013-08-20 20:19:00,
2013-08-20 16:24:00,72.0,61.2,30.06,SE,139,4.0,6.0,69,0.00,,,0.00,479,WeatherHawk,2013-08-20 20:24:00,
2013-08-20 16:29:00,71.8,61.9,30.06,ESE,123,5.0,6.0,71,0.00,,,0.00,462,WeatherHawk,2013-08-20 20:29:00,
2013-08-20 16:34:00,72.0,61.6,30.06,SE,131,4.0,6.0,70,0.00,,,0.00,449,WeatherHawk,2013-08-20 20:34:00,
2013-08-20 16:40:00,72.7,61.9,30.07,ESE,120,3.0,6.0,69,0.00,,,0.00,436,WeatherHawk,2013-08-20 20:40:00,
2013-08-20 16:45:00,72.5,61.7,30.07,SE,130,5.0,6.0,69,0.00,,,0.00,425,WeatherHawk,2013-08-20 20:45:00,
2013-08-20 16:50:00,72.0,61.2,30.07,SE,137,2.0,6.0,69,0.00,,,0.00,409,WeatherHawk,2013-08-20 20:50:00,
2013-08-20 16:55:00,72.3,61.6,30.07,SE,126,4.0,6.0,69,0.00,,,0.00,391,WeatherHawk,2013-08-20 20:55:00,
2013-08-20 17:00:00,72.5,61.3,30.07,ESE,120,5.0,6.0,68,0.00,,,0.00,375,WeatherHawk,2013-08-20 21:00:00,
2013-08-20 17:05:00,72.7,61.5,30.07,ESE,119,4.0,6.0,68,0.00,,,0.00,361,WeatherHawk,2013-08-20 21:05:00,
2013-08-20 17:10:00,72.9,61.7,30.07,SE,129,5.0,5.0,68,0.00,,,0.00,343,WeatherHawk,2013-08-20 21:10:00,
2013-08-20 17:15:00,72.9,61.2,30.07,East,101,4.0,6.0,67,0.00,,,0.00,334,WeatherHawk,2013-08-20 21:15:00,
2013-08-20 17:20:00,73.4,60.9,30.07,ESE,109,6.0,6.0,65,0.00,,,0.00,319,WeatherHawk,2013-08-20 21:20:00,
2013-08-20 17:25:00,73.2,61.2,30.07,ESE,123,4.0,6.0,66,0.00,,,0.00,300,WeatherHawk,2013-08-20 21:25:00,
2013-08-20 17:30:00,73.2,61.2,30.07,East,97,2.0,6.0,66,0.00,,,0.00,290,WeatherHawk,2013-08-20 21:30:00,
2013-08-20 17:35:00,73.4,61.3,30.07,ESE,122,4.0,6.0,66,0.00,,,0.00,278,WeatherHawk,2013-08-20 21:35:00,
2013-08-20 17:40:00,73.2,61.2,30.07,ESE,109,5.0,6.0,66,0.00,,,0.00,258,WeatherHawk,2013-08-20 21:40:00,
2013-08-20 17:45:00,73.2,60.7,30.08,SE,124,4.0,6.0,65,0.00,,,0.00,247,WeatherHawk,2013-08-20 21:45:00,
2013-08-20 17:50:00,72.9,60.8,30.08,ESE,121,6.0,6.0,66,0.00,,,0.00,238,WeatherHawk,2013-08-20 21:50:00,
2013-08-20 17:55:00,72.7,61.5,30.08,ESE,115,5.0,6.0,68,0.00,,,0.00,225,WeatherHawk,2013-08-20 21:55:00,
2013-08-20 18:00:00,73.0,61.4,30.08,ESE,121,4.0,6.0,67,0.00,,,0.00,210,WeatherHawk,2013-08-20 22:00:00,
2013-08-20 18:05:00,72.9,61.2,30.07,ESE,122,5.0,5.0,67,0.00,,,0.00,197,WeatherHawk,2013-08-20 22:05:00,
2013-08-20 18:10:00,72.7,61.1,30.07,SE,124,5.0,5.0,67,0.00,,,0.00,182,WeatherHawk,2013-08-20 22:10:00,
2013-08-20 18:15:00,72.3,61.2,30.08,ESE,120,4.0,5.0,68,0.00,,,0.00,170,WeatherHawk,2013-08-20 22:15:00,
2013-08-20 18:20:00,72.1,61.4,30.08,ESE,121,4.0,5.0,69,0.00,,,0.00,158,WeatherHawk,2013-08-20 22:20:00,
2013-08-20 18:25:00,72.1,61.4,30.08,ESE,123,5.0,5.0,69,0.00,,,0.00,145,WeatherHawk,2013-08-20 22:25:00,
2013-08-20 18:30:00,72.0,61.2,30.08,ESE,121,5.0,5.0,69,0.00,,,0.00,133,WeatherHawk,2013-08-20 22:30:00,
2013-08-20 18:35:00,71.8,61.0,30.08,ESE,116,5.0,5.0,69,0.00,,,0.00,121,WeatherHawk,2013-08-20 22:35:00,
2013-08-20 18:40:00,71.8,61.0,30.08,ESE,120,5.0,5.0,69,0.00,,,0.00,105,WeatherHawk,2013-08-20 22:40:00,
2013-08-20 18:45:00,71.8,61.0,30.08,ESE,113,5.0,5.0,69,0.00,,,0.00,98,WeatherHawk,2013-08-20 22:45:00,
2013-08-20 18:50:00,72.0,61.2,30.08,ESE,121,4.0,5.0,69,0.00,,,0.00,85,WeatherHawk,2013-08-20 22:50:00,
2013-08-20 18:55:00,72.0,61.6,30.08,ESE,120,4.0,5.0,70,0.00,,,0.00,73,WeatherHawk,2013-08-20 22:55:00,
2013-08-20 19:00:00,72.0,61.2,30.08,ESE,123,4.0,5.0,69,0.00,,,0.00,62,WeatherHawk,2013-08-20 23:00:00,
2013-08-20 19:05:00,71.8,61.0,30.08,SE,129,4.0,4.0,69,0.00,,,0.00,46,WeatherHawk,2013-08-20 23:05:00,
2013-08-20 19:10:00,71.8,61.0,30.08,ESE,118,3.0,4.0,69,0.00,,,0.00,35,WeatherHawk,2013-08-20 23:10:00,
2013-08-20 19:15:00,71.6,60.9,30.08,ESE,108,3.0,4.0,69,0.00,,,0.00,26,WeatherHawk,2013-08-20 23:15:00,
2013-08-20 19:20:00,71.8,61.0,30.08,SE,124,4.0,5.0,69,0.00,,,0.00,17,WeatherHawk,2013-08-20 23:20:00,
2013-08-20 19:25:00,71.8,61.0,30.08,ESE,118,3.0,5.0,69,0.00,,,0.00,11,WeatherHawk,2013-08-20 23:25:00,
2013-08-20 19:30:00,71.8,61.0,30.08,ESE,114,2.0,4.0,69,0.00,,,0.00,8,WeatherHawk,2013-08-20 23:30:00,
2013-08-20 19:35:00,71.8,61.5,30.08,SW,221,1.0,3.0,70,0.00,,,0.00,6,WeatherHawk,2013-08-20 23:35:00,
2013-08-20 19:40:00,71.6,61.3,30.08,SE,138,1.0,3.0,70,0.00,,,0.00,4,WeatherHawk,2013-08-20 23:40:00,
2013-08-20 19:45:00,71.6,61.7,30.08,ESE,116,1.0,2.0,71,0.00,,,0.00,1,WeatherHawk,2013-08-20 23:45:00,
2013-08-20 19:50:00,71.4,61.9,30.09,SSE,164,1.0,2.0,72,0.00,,,0.00,0,WeatherHawk,2013-08-20 23:50:00,
2013-08-20 19:55:00,71.4,62.3,30.09,SE,135,3.0,3.0,73,0.00,,,0.00,0,WeatherHawk,2013-08-20 23:55:00,
2013-08-20 20:00:00,71.2,61.7,30.08,SE,137,2.0,3.0,72,0.00,,,0.00,0,WeatherHawk,2013-08-21 00:00:00,
2013-08-20 20:05:00,71.2,62.1,30.08,ESE,117,4.0,4.0,73,0.00,,,0.00,0,WeatherHawk,2013-08-21 00:05:00,
2013-08-20 20:10:00,71.1,62.3,30.08,SE,130,2.0,4.0,74,0.00,,,0.00,0,WeatherHawk,2013-08-21 00:10:00,
2013-08-20 20:15:00,70.9,62.2,30.08,South,170,1.0,4.0,74,0.00,,,0.00,0,WeatherHawk,2013-08-21 00:15:00,
2013-08-20 20:20:00,70.7,62.8,30.08,SE,138,2.0,3.0,76,0.00,,,0.00,0,WeatherHawk,2013-08-21 00:20:00,
2013-08-20 20:25:00,70.5,63.0,30.09,SE,138,3.0,4.0,77,0.00,,,0.00,0,WeatherHawk,2013-08-21 00:25:00,
2013-08-20 20:30:00,70.3,62.8,30.09,SE,128,2.0,4.0,77,0.00,,,0.00,0,WeatherHawk,2013-08-21 00:30:00,
2013-08-20 20:35:00,70.2,63.0,30.09,SE,128,2.0,3.0,78,0.00,,,0.00,0,WeatherHawk,2013-08-21 00:35:00,
2013-08-20 20:40:00,70.2,63.0,30.09,SE,141,2.0,3.0,78,0.00,,,0.00,0,WeatherHawk,2013-08-21 00:40:00,
2013-08-20 20:45:00,70.2,63.0,30.09,SSE,160,1.0,3.0,78,0.00,,,0.00,0,WeatherHawk,2013-08-21 00:45:00,
2013-08-20 20:50:00,69.8,62.3,30.09,WSW,242,0.0,2.0,77,0.00,,,0.00,0,WeatherHawk,2013-08-21 00:50:00,
2013-08-20 20:55:00,69.6,62.4,30.09,SW,229,1.0,2.0,78,0.00,,,0.00,0,WeatherHawk,2013-08-21 00:55:00,
2013-08-20 21:00:00,69.3,62.5,30.09,West,270,1.0,1.0,79,0.00,,,0.00,0,WeatherHawk,2013-08-21 01:00:00,
2013-08-20 21:05:00,69.1,62.6,30.09,WNW,302,1.0,1.0,80,0.00,,,0.00,0,WeatherHawk,2013-08-21 01:05:00,
2013-08-20 21:10:00,69.1,63.0,30.09,NNE,17,1.0,2.0,81,0.00,,,0.00,0,WeatherHawk,2013-08-21 01:10:00,
2013-08-20 21:15:00,69.1,63.0,30.09,NNE,14,1.0,2.0,81,0.00,,,0.00,0,WeatherHawk,2013-08-21 01:15:00,
2013-08-20 21:20:00,68.9,62.8,30.10,West,276,2.0,2.0,81,0.00,,,0.00,0,WeatherHawk,2013-08-21 01:20:00,
2013-08-20 21:25:00,68.4,62.6,30.10,NNW,328,2.0,2.0,82,0.00,,,0.00,0,WeatherHawk,2013-08-21 01:25:00,
2013-08-20 21:30:00,68.4,62.6,30.10,NW,306,2.0,2.0,82,0.00,,,0.00,0,WeatherHawk,2013-08-21 01:30:00,
2013-08-20 21:35:00,68.4,63.0,30.10,North,359,1.0,2.0,83,0.00,,,0.00,0,WeatherHawk,2013-08-21 01:35:00,
2013-08-20 21:40:00,68.4,63.0,30.10,SE,137,1.0,2.0,83,0.00,,,0.00,0,WeatherHawk,2013-08-21 01:40:00,
2013-08-20 21:45:00,68.5,63.2,30.10,ESE,115,2.0,2.0,83,0.00,,,0.00,0,WeatherHawk,2013-08-21 01:45:00,
2013-08-20 21:50:00,68.7,63.0,30.10,ESE,107,0.0,2.0,82,0.00,,,0.00,0,WeatherHawk,2013-08-21 01:50:00,
2013-08-20 21:55:00,68.4,62.6,30.10,WSW,256,1.0,2.0,82,0.00,,,0.00,0,WeatherHawk,2013-08-21 01:55:00,
2013-08-20 22:00:00,68.0,62.6,30.10,WNW,284,1.0,2.0,83,0.00,,,0.00,0,WeatherHawk,2013-08-21 02:00:00,
2013-08-20 22:05:00,67.8,62.8,30.10,West,273,1.0,2.0,84,0.00,,,0.00,0,WeatherHawk,2013-08-21 02:05:00,
2013-08-20 22:10:00,68.0,63.0,30.10,WSW,255,2.0,2.0,84,0.00,,,0.00,0,WeatherHawk,2013-08-21 02:10:00,
2013-08-20 22:15:00,68.0,63.0,30.10,West,270,1.0,2.0,84,0.00,,,0.00,0,WeatherHawk,2013-08-21 02:15:00,
2013-08-20 22:20:00,67.8,62.8,30.10,West,270,1.0,2.0,84,0.00,,,0.00,0,WeatherHawk,2013-08-21 02:20:00,
2013-08-20 22:25:00,67.8,62.8,30.10,WSW,253,1.0,2.0,84,0.00,,,0.00,0,WeatherHawk,2013-08-21 02:25:00,
2013-08-20 22:30:00,67.8,62.8,30.10,WNW,290,0.0,2.0,84,0.00,,,0.00,0,WeatherHawk,2013-08-21 02:30:00,
2013-08-20 22:35:00,67.8,62.8,30.10,NW,309,0.0,2.0,84,0.00,,,0.00,0,WeatherHawk,2013-08-21 02:35:00,
2013-08-20 22:40:00,67.8,62.5,30.10,WNW,283,1.0,2.0,83,0.00,,,0.00,0,WeatherHawk,2013-08-21 02:40:00,
2013-08-20 22:45:00,68.4,61.9,30.10,NW,318,1.0,2.0,80,0.00,,,0.00,0,WeatherHawk,2013-08-21 02:45:00,
2013-08-20 22:50:00,68.5,62.5,30.10,NW,314,1.0,2.0,81,0.00,,,0.00,0,WeatherHawk,2013-08-21 02:50:00,
2013-08-20 22:55:00,68.4,62.3,30.10,NW,306,2.0,2.0,81,0.00,,,0.00,0,WeatherHawk,2013-08-21 02:55:00,
2013-08-20 23:00:00,68.5,61.4,30.10,WSW,246,2.0,2.0,78,0.00,,,0.00,0,WeatherHawk,2013-08-21 03:00:00,
2013-08-20 23:05:00,68.7,61.9,30.10,South,190,2.0,2.0,79,0.00,,,0.00,0,WeatherHawk,2013-08-21 03:05:00,
2013-08-20 23:10:00,68.7,61.9,30.10,SW,217,1.0,2.0,79,0.00,,,0.00,0,WeatherHawk,2013-08-21 03:10:00,
2013-08-20 23:15:00,68.7,62.3,30.10,SSE,158,1.0,2.0,80,0.00,,,0.00,0,WeatherHawk,2013-08-21 03:15:00,
2013-08-20 23:20:00,68.2,62.1,30.10,SE,128,2.0,2.0,81,0.00,,,0.00,0,WeatherHawk,2013-08-21 03:20:00,
2013-08-20 23:25:00,67.6,62.3,30.10,SE,132,1.0,2.0,83,0.00,,,0.00,0,WeatherHawk,2013-08-21 03:25:00,
2013-08-20 23:30:00,67.5,62.1,30.10,North,2,1.0,2.0,83,0.00,,,0.00,0,WeatherHawk,2013-08-21 03:30:00,
2013-08-20 23:35:00,67.5,62.1,30.10,NW,319,1.0,2.0,83,0.00,,,0.00,0,WeatherHawk,2013-08-21 03:35:00,
2013-08-20 23:40:00,67.5,62.1,30.10,NW,319,0.0,1.0,83,0.00,,,0.00,0,WeatherHawk,2013-08-21 03:40:00,
2013-08-20 23:45:00,67.5,61.8,30.10,NE,50,0.0,1.0,82,0.00,,,0.00,0,WeatherHawk,2013-08-21 03:45:00,
2013-08-20 23:50:00,67.5,61.8,30.10,North,352,1.0,1.0,82,0.00,,,0.00,0,WeatherHawk,2013-08-21 03:50:00,
2013-08-20 23:55:00,67.5,61.8,30.10,NNW,336,1.0,2.0,82,0.00,,,0.00,0,WeatherHawk,2013-08-21 03:55:00,